• In Germany
  • List of Countries
  • For 7 days
  • Water Temperature
  • Satellite Maps
  • Weather Map
  • Weather Widgets
  • user-avatar
    Login

    Hourly Weather Severnyy

    Today, 23 April, Monday

    Time Temperature Precipitation Wind Pressure Humidity
    00:00 +3°C° 0 mm 2 mps 657 mmHg 43%
    01:00 +3°C° 0 mm 2 mps 657 mmHg 42%
    02:00 +2°C° 0 mm 2 mps 657 mmHg 44%
    03:00 +2°C° 0 mm 2 mps 657 mmHg 46%
    04:00 +1°C° 0 mm 2 mps 657 mmHg 48%
    05:00 +3°C° 0 mm 2 mps 657 mmHg 45%
    06:00 +4°C° 0 mm 3 mps 658 mmHg 41%
    07:00 +5°C° 0 mm 3 mps 658 mmHg 37%
    08:00 +8°C° 0 mm 3 mps 658 mmHg 34%
    09:00 +10°C° 0 mm 4 mps 659 mmHg 30%
    10:00 +12°C° 0 mm 4 mps 659 mmHg 26%
    11:00 +14°C° 0 mm 4 mps 659 mmHg 24%
    12:00 +15°C° 0 mm 4 mps 659 mmHg 21%
    13:00 +17°C° 0 mm 4 mps 659 mmHg 19%
    14:00 +17°C° 0 mm 4 mps 659 mmHg 19%
    15:00 +17°C° 0 mm 3 mps 659 mmHg 19%
    16:00 +17°C° 0 mm 3 mps 659 mmHg 18%
    17:00 +14°C° 0 mm 2 mps 658 mmHg 23%
    18:00 +12°C° 0 mm 2 mps 657 mmHg 27%
    19:00 +9°C° 0 mm 1 mps 657 mmHg 31%
    20:00 +8°C° 0 mm 1 mps 656 mmHg 33%
    21:00 +8°C° 0 mm 1 mps 656 mmHg 34%
    22:00 +6°C° 0 mm 0 mps 656 mmHg 36%
    23:00 +5°C° 0 mm 0 mps 656 mmHg 36%

    Tomorrow, 24 April, Tuesday

    Time Temperature Precipitation Wind Pressure Humidity
    00:00 +6°C° 0 mm 1 mps 656 mmHg 37%
    01:00 +5°C° 0 mm 1 mps 656 mmHg 38%
    02:00 +5°C° 0 mm 1 mps 655 mmHg 40%
    03:00 +4°C° 0 mm 1 mps 655 mmHg 42%
    04:00 +4°C° 0 mm 1 mps 655 mmHg 44%
    05:00 +6°C° 0 mm 1 mps 655 mmHg 41%
    06:00 +7°C° 0 mm 1 mps 655 mmHg 38%
    07:00 +9°C° 0 mm 1 mps 655 mmHg 36%
    08:00 +12°C° 0 mm 1 mps 655 mmHg 32%
    09:00 +14°C° 0 mm 2 mps 655 mmHg 28%
    10:00 +16°C° 0 mm 2 mps 655 mmHg 23%
    11:00 +18°C° 0 mm 3 mps 655 mmHg 21%
    12:00 +19°C° 0 mm 4 mps 655 mmHg 18%
    13:00 +20°C° 0 mm 4 mps 654 mmHg 16%
    14:00 +20°C° 0 mm 4 mps 654 mmHg 16%
    15:00 +21°C° 0 mm 4 mps 653 mmHg 16%
    16:00 +21°C° 0 mm 4 mps 653 mmHg 16%
    17:00 +18°C° 0 mm 3 mps 652 mmHg 20%
    18:00 +15°C° 0 mm 2 mps 651 mmHg 24%
    19:00 +13°C° 0 mm 2 mps 650 mmHg 28%
    20:00 +10°C° 0 mm 2 mps 650 mmHg 31%
    21:00 +9°C° 0 mm 2 mps 650 mmHg 33%
    22:00 +8°C° 0 mm 2 mps 650 mmHg 35%
    23:00 +7°C° 0 mm 2 mps 651 mmHg 44%

    Day after tomorrow, 25 April, Wednesday

    Time Temperature Precipitation Wind Pressure Humidity
    00:00 +6°C° 0 mm 2 mps 651 mmHg 52%
    01:00 +5°C° 0 mm 2 mps 651 mmHg 61%
    02:00 +5°C° 0 mm 2 mps 651 mmHg 67%
    03:00 +5°C° 0 mm 2 mps 652 mmHg 73%
    04:00 +5°C° 0 mm 2 mps 652 mmHg 79%
    05:00 +4°C° 0.1 mm 3 mps 653 mmHg 76%
    06:00 +5°C° 0.1 mm 4 mps 653 mmHg 74%
    07:00 +5°C° 0.1 mm 5 mps 654 mmHg 71%
    08:00 +5°C° 0.1 mm 5 mps 654 mmHg 66%
    09:00 +6°C° 0.1 mm 5 mps 655 mmHg 62%
    10:00 +6°C° 0.1 mm 5 mps 655 mmHg 58%
    11:00 +7°C° 0 mm 5 mps 655 mmHg 54%
    12:00 +8°C° 0 mm 5 mps 655 mmHg 50%
    13:00 +8°C° 0 mm 4 mps 655 mmHg 46%
    14:00 +10°C° 0 mm 4 mps 655 mmHg 44%
    15:00 +10°C° 0 mm 4 mps 655 mmHg 43%
    16:00 +10°C° 0 mm 3 mps 655 mmHg 41%
    17:00 +8°C° 0 mm 3 mps 655 mmHg 46%
    18:00 +6°C° 0 mm 2 mps 654 mmHg 51%
    19:00 +6°C° 0 mm 1 mps 654 mmHg 56%
    20:00 +5°C° 0 mm 1 mps 654 mmHg 58%
    21:00 +4°C° 0 mm 1 mps 654 mmHg 61%
    22:00 +2°C° 0 mm 0 mps 654 mmHg 64%
    23:00 +2°C° 0 mm 1 mps 654 mmHg 63%

    26 April, Thursday

    Time Temperature Precipitation Wind Pressure Humidity
    00:00 +2°C° 0 mm 1 mps 654 mmHg 63%
    01:00 +2°C° 0 mm 1 mps 653 mmHg 62%
    02:00 +2°C° 0 mm 1 mps 653 mmHg 63%
    03:00 +2°C° 0 mm 1 mps 653 mmHg 63%
    04:00 +2°C° 0 mm 1 mps 653 mmHg 64%
    05:00 +4°C° 0 mm 1 mps 654 mmHg 59%
    06:00 +5°C° 0 mm 1 mps 654 mmHg 54%
    07:00 +7°C° 0 mm 1 mps 655 mmHg 50%
    08:00 +9°C° 0 mm 1 mps 655 mmHg 44%
    09:00 +12°C° 0 mm 2 mps 656 mmHg 38%
    10:00 +14°C° 0 mm 2 mps 656 mmHg 33%
    11:00 +14°C° 0 mm 3 mps 656 mmHg 32%
    12:00 +16°C° 0 mm 3 mps 656 mmHg 32%
    13:00 +18°C° 0 mm 4 mps 656 mmHg 32%
    14:00 +17°C° 0 mm 4 mps 656 mmHg 33%
    15:00 +17°C° 0 mm 4 mps 655 mmHg 34%
    16:00 +17°C° 0 mm 3 mps 655 mmHg 35%
    17:00 +14°C° 0 mm 3 mps 654 mmHg 42%
    18:00 +13°C° 0 mm 2 mps 654 mmHg 48%
    19:00 +11°C° 0 mm 1 mps 653 mmHg 55%
    20:00 +10°C° 0 mm 1 mps 653 mmHg 58%
    21:00 +10°C° 0 mm 1 mps 653 mmHg 62%
    22:00 +9°C° 0 mm 1 mps 652 mmHg 65%
    23:00 +8°C° 0.1 mm 1 mps 652 mmHg 68%

    27 April, Friday

    Time Temperature Precipitation Wind Pressure Humidity
    00:00 +8°C° 0.1 mm 1 mps 652 mmHg 71%
    01:00 +7°C° 0.1 mm 1 mps 652 mmHg 74%
    02:00 +5°C° 0.1 mm 2 mps 652 mmHg 78%
    03:00 +5°C° 0.1 mm 2 mps 652 mmHg 83%
    04:00 +4°C° 0.1 mm 2 mps 652 mmHg 87%
    05:00 +5°C° 0 mm 2 mps 653 mmHg 82%
    06:00 +5°C° 0 mm 3 mps 653 mmHg 76%
    07:00 +5°C° 0 mm 3 mps 654 mmHg 71%
    08:00 +6°C° 0 mm 4 mps 655 mmHg 66%
    09:00 +7°C° 0 mm 4 mps 655 mmHg 61%
    10:00 +8°C° 0 mm 5 mps 656 mmHg 56%
    11:00 +9°C° 0 mm 5 mps 656 mmHg 49%
    12:00 +10°C° 0 mm 5 mps 656 mmHg 43%
    13:00 +12°C° 0 mm 5 mps 656 mmHg 37%
    14:00 +12°C° 0 mm 5 mps 656 mmHg 36%
    15:00 +10°C° 0 mm 5 mps 656 mmHg 36%
    16:00 +11°C° 0 mm 4 mps 655 mmHg 35%
    17:00 +9°C° 0 mm 3 mps 655 mmHg 40%
    18:00 +8°C° 0 mm 2 mps 655 mmHg 45%
    19:00 +7°C° 0 mm 1 mps 654 mmHg 50%
    20:00 +6°C° 0 mm 1 mps 654 mmHg 52%
    21:00 +5°C° 0 mm 1 mps 654 mmHg 55%
    22:00 +4°C° 0 mm 1 mps 654 mmHg 58%
    23:00 +4°C° 0 mm 1 mps 654 mmHg 58%

    28 April, Saturday

    Time Temperature Precipitation Wind Pressure Humidity
    00:00 +4°C° 0 mm 1 mps 654 mmHg 58%
    01:00 +4°C° 0 mm 1 mps 654 mmHg 58%
    02:00 +4°C° 0.1 mm 1 mps 654 mmHg 59%
    03:00 +3°C° 0.1 mm 1 mps 654 mmHg 60%
    04:00 +3°C° 0.1 mm 1 mps 653 mmHg 61%
    05:00 +3°C° 0.3 mm 1 mps 653 mmHg 61%
    06:00 +4°C° 0.3 mm 1 mps 653 mmHg 60%
    07:00 +4°C° 0.3 mm 1 mps 653 mmHg 60%
    08:00 +5°C° 0.1 mm 1 mps 653 mmHg 57%
    09:00 +4°C° 0.1 mm 2 mps 653 mmHg 55%
    10:00 +5°C° 0.1 mm 2 mps 653 mmHg 52%
    11:00 +4°C° 0.2 mm 3 mps 653 mmHg 53%
    12:00 +4°C° 0.2 mm 3 mps 652 mmHg 54%
    13:00 +3°C° 0.2 mm 4 mps 652 mmHg 55%
    14:00 +1°C° 0.6 mm 4 mps 652 mmHg 58%
    15:00 +1°C° 0.6 mm 4 mps 652 mmHg 61%
    16:00 0°C° 0.6 mm 4 mps 652 mmHg 64%
    17:00 0°C° 0.1 mm 3 mps 652 mmHg 67%
    18:00 -1°C° 0.1 mm 3 mps 653 mmHg 69%
    19:00 -2°C° 0.1 mm 2 mps 653 mmHg 72%
    20:00 -2°C° 0 mm 2 mps 653 mmHg 77%
    21:00 -3°C° 0 mm 2 mps 653 mmHg 82%
    22:00 -2°C° 0 mm 1 mps 653 mmHg 87%
    23:00 -2°C° 0 mm 1 mps 653 mmHg 89%
    Show more